sat.trackr.live / text

‹ back to catalog

STARLINK-2225

NORAD 48574 · 2021-041X

PAYLOAD ACTIVE UNKNOWN

§ Identity

Operator
Country
US
Launch date
2021-05-15
Launch site
AFETR
Launch vehicle
Mass (kg)
RCS (m²)

Purposes: comms

External: N2YO · Heavens-Above · Gunter

§ Orbital elements

Epoch: 2026-05-25T03:15:36.416160Z

Period
94.01 min
Inclination
53.1610°
Eccentricity
0.0001351
Mean motion
15.31696835 rev/d
Perigee alt
469.8 km
Apogee alt
471.7 km
Semi-major
6,848.9 km
B*
2.4513e-5
RAAN
105.4174°
Arg perigee
101.3924°
Mean anomaly
258.7230°
Rev number
27,734

§ Raw data

STARLINK-22251 48574U 21041X   26145.13583815  .00000395  00000+0  24513-4 0  99932 48574  53.1610 105.4174 0001351 101.3924 258.7230 15.31696835277345

JSON: /api/v1/satellites/48574 · /tle

For live sub-satellite position, see the globe view (requires WebGL).

§ Visibility from observer

Set your observer location to see the next 7 days of passes ≥ 10°. The values pass through the URL so the page stays shareable.

No JS? Fill the form by hand. The geolocation button needs JavaScript.